This demonstration page uses our WeatherBlox Daily Observations layout. Learn more.

Left ArrowRight Arrow

39.12711, -84.51439

Hourly Observations for November 17, 2020

Temp ( °F °C ) Dew Point ( °F °C ) Humidity (%) Winds ( mph kmh ) Pressure ( in mb ) Visibility ( mi km ) Precip ( " mm )
12:53 am 00:53 Clear 45 7.2 27 -2.8 49 49 SW 9 15 30.09 1019 10 16 0.00 0.00
1:53 am 01:53 Clear 44 6.7 27 -2.8 51 51 SW 7 11 30.09 1019 10 16 0.00 0.00
2:53 am 02:53 Clear 48 8.9 30 -1.1 50 50 W 9 15 30.11 1020 10 16 0.00 0.00
3:53 am 03:53 Cloudy 46 7.8 31 -0.6 56 56 NW 9 15 30.14 1021 10 16 0.00 0.00
4:53 am 04:53 Mostly Clear 45 7.2 32 0 61 61 NW 10 17 30.17 1022 10 16 0.00 0.00
5:53 am 05:53 Clear 43 6.1 32 0 65 65 NW 9 15 30.23 1024 10 16 0.00 0.00
6:53 am 06:53 Clear 42 5.6 32 0 68 68 WNW 8 13 30.26 1025 10 16 0.00 0.00
7:53 am 07:53 Sunny 41 5 32 0 70 70 NW 8 13 30.30 1026 10 16 0.00 0.00
8:53 am 08:53 Sunny 42 5.6 30 -1.1 62 62 NW 9 15 30.35 1028 10 16 0.00 0.00
9:53 am 09:53 Mostly Cloudy 42 5.6 29 -1.7 60 60 NW 13 20 30.40 1029 10 16 0.00 0.00
10:53 am 10:53 Mostly Cloudy 41 5 27 -2.8 57 57 NNW 14 22 30.44 1031 10 16 0.00 0.00
11:53 am 11:53 Mostly Cloudy 42 5.6 23 -5 47 47 NNW 12 19 30.45 1031 10 16 0.00 0.00
12:53 pm 12:53 Partly Cloudy 45 7.2 24 -4.4 44 44 NNW 14 22 30.45 1031 10 16 0.00 0.00
1:53 pm 13:53 Partly Cloudy 43 6.1 22 -5.6 43 43 WNW 13 20 30.47 1032 10 16 0.00 0.00
2:53 pm 14:53 Partly Cloudy 44 6.7 22 -5.6 41 41 NW 9 15 30.48 1032 10 16 0.00 0.00
3:53 pm 15:53 Sunny 43 6.1 22 -5.6 43 43 NNW 14 22 30.48 1032 10 16 0.00 0.00
4:53 pm 16:53 Sunny 41 5 21 -6.1 45 45 NW 9 15 30.50 1033 10 16 0.00 0.00
5:53 pm 17:53 Clear 39 3.9 21 -6.1 48 48 NW 8 13 30.51 1033 10 16 0.00 0.00
6:53 pm 18:53 Clear 38 3.3 21 -6.1 51 51 VRB 5 7 30.53 1034 10 16 0.00 0.00
7:53 pm 19:53 Clear 37 2.8 22 -5.6 54 54 VRB 6 9 30.54 1034 10 16 0.00 0.00
8:53 pm 20:53 Clear 36 2.2 22 -5.6 57 57 Calm 30.55 1034 10 16 0.00 0.00
9:53 pm 21:53 Clear 37 2.8 20 -6.7 50 50 NW 5 7 30.55 1035 10 16 0.00 0.00
10:53 pm 22:53 Clear 33 0.6 21 -6.1 61 61 Calm 30.55 1035 10 16 0.00 0.00
11:53 pm 23:53 Clear 27 -2.8 22 -5.6 81 81 NNE 3 6 30.57 1035 10 16 0.00 0.00

Powered by AerisWeather